Temperature
25 25 25 24 22 20 21 22 23 22 22 22 22 21 20 19 19 19 19 19 19 19 18 18 19 19 19 19 19 18 18 18 18 18 18 18 18 18 18 18 18 18 18 18 18 18 18 18 18
26 25 25 25 21 20 21 22 22 22 22 23 22 21 19 18 18 19 19 19 19 19 19 19 19 19 19 19 18 18 18 18 18 18 18 18 18 18 18 18 18 18 18 18 18 18 17 17 17
26 26 26 21 21 21 22 23 22 23 23 23 22 21 19 19 19 20 20 19 19 19 19 19 19 19 19 19 18 18 18 18 18 18 18 18 18 18 18 18 18 18 18 18 18 18 18 18 17
27 26 25 21 22 23 23 23 23 23 23 22 21 20 20 20 20 20 20 19 19 19 19 19 19 19 19 19 18 18 18 18 18 18 18 18 18 18 18 18 18 18 18 17 18 18 17 17 17
27 26 22 21 23 24 24 24 24 23 22 22 21 19 19 20 20 20 20 20 20 19 19 19 19 19 19 19 18 18 18 18 18 18 18 18 18 18 18 18 18 18 18 18 17 17 17 17 17
28 23 21 22 24 24 24 24 23 22 22 22 21 19 19 20 20 20 20 20 19 19 19 19 19 19 19 19 18 18 18 18 18 18 18 18 18 18 18 18 18 18 18 18 17 17 17 17 17
26 21 22 23 23 24 24 24 23 22 22 22 21 19 19 19 20 20 20 20 19 19 19 19 19 19 19 19 18 18 18 18 18 18 18 18 18 18 18 18 18 18 18 17 17 17 17 17 17
27 22 23 23 23 24 24 24 23 23 22 22 22 20 19 20 20 20 20 19 19 19 19 19 19 19 19 18 18 18 18 18 18 18 18 18 18 18 18 18 18 18 18 17 17 17 17 17 17
27 22 23 23 24 24 24 24 24 23 23 22 22 22 21 20 20 20 19 19 19 19 19 19 19 19 19 18 18 18 18 18 18 18 18 18 18 18 18 18 18 17 17 17 17 17 17 17 17
26 22 24 24 24 24 24 24 24 23 23 22 22 22 21 20 20 20 20 20 20 20 19 19 19 19 19 18 18 18 18 18 18 18 18 18 18 18 18 18 18 17 17 17 17 17 17 17 17
26 25 25 26 26 26 25 24 24 23 22 22 22 22 21 21 20 20 21 21 20 20 20 19 19 19 19 19 18 18 18 18 18 18 18 18 18 18 18 18 18 17 17 17 17 17 17 17 17
26 26 27 27 27 26 25 25 24 24 24 25 24 23 22 21 21 21 21 20 20 20 20 19 19 19 19 19 18 18 18 18 18 18 18 18 18 18 18 18 17 17 17 17 17 17 17 17 17
26 26 27 27 27 26 25 24 24 24 24 24 23 23 22 21 21 21 21 20 20 20 20 19 19 19 19 19 18 18 18 18 18 18 18 18 18 18 18 17 17 17 17 17 17 17 17 17 17
26 26 26 26 26 26 25 24 24 23 24 24 23 22 22 22 22 21 21 21 20 20 20 19 19 19 19 18 18 18 18 18 18 18 18 17 17 17 17 17 17 17 17 17 17 17 17 17 17
26 25 25 26 26 26 25 24 23 24 24 23 22 22 22 22 22 21 21 21 21 20 20 19 19 19 19 18 18 18 18 18 18 18 18 17 17 17 17 17 17 17 17 17 17 17 17 17 17
25 24 25 25 25 25 25 24 24 24 23 22 22 21 21 21 22 22 21 21 21 20 20 20 19 19 19 18 18 18 18 18 18 18 18 17 17 17 17 17 17 17 17 17 17 17 17 17 17
23 24 25 25 25 25 25 24 23 23 23 22 22 22 22 22 22 22 22 21 21 21 20 19 19 19 19 19 18 18 18 18 18 18 18 17 17 17 17 17 17 17 17 17 17 17 17 17 17
25 25 25 25 25 25 24 24 23 23 23 22 22 22 22 22 22 22 22 21 21 21 20 19 19 19 19 18 18 18 18 18 18 18 17 17 17 17 17 17 17 17 17 17 17 17 17 17 17
25 25 24 24 25 25 24 23 22 22 22 22 22 22 22 22 22 22 22 22 21 21 20 20 19 19 19 19 18 18 18 18 18 18 17 17 17 17 17 17 17 17 17 17 17 17 17 17 17
25 25 25 25 25 25 24 23 23 22 22 22 22 22 23 23 22 22 22 22 21 21 20 20 20 19 19 19 19 18 18 18 18 17 17 17 17 17 17 17 17 17 17 17 17 17 17 17 17
26 25 26 25 25 24 24 24 23 22 23 23 23 23 23 23 23 22 22 22 21 21 21 20 20 20 19 19 18 18 18 18 17 17 17 17 17 17 17 17 17 17 17 17 17 17 17 17 17
26 26 26 25 24 22 24 23 23 21 21 22 22 23 23 23 23 22 22 22 22 21 21 20 20 20 19 19 18 18 18 18 18 17 17 17 17 17 17 17 17 17 17 17 17 17 17 17 17
26 25 24 24 23 22 22 22 22 21 22 21 22 22 23 23 23 23 22 22 21 21 21 20 20 19 19 19 18 18 18 18 17 17 17 17 17 17 17 17 17 17 17 17 17 17 17 17 17
25 23 22 19 20 22 23 22 22 20 21 21 22 22 23 23 23 23 22 22 21 21 21 20 20 19 19 18 18 18 18 18 17 17 17 17 17 17 17 17 17 17 17 17 17 17 17 17 17
24 22 21 22 20 21 21 22 21 22 21 22 22 22 23 23 23 23 22 22 22 21 21 20 20 20 19 18 18 18 18 18 17 17 17 17 17 17 17 17 17 17 17 17 17 17 17 16 16
23 22 21 22 22 21 21 22 22 22 23 23 23 24 23 23 23 23 23 22 22 22 21 20 20 20 19 19 18 18 18 18 17 17 17 17 17 17 17 17 17 17 17 17 17 17 16 16 16
23 21 21 19 20 21 21 21 22 23 22 22 23 23 23 23 23 23 23 23 22 22 21 21 20 20 19 19 18 18 18 18 17 17 17 17 17 17 17 17 17 17 17 17 17 16 16 16 16
22 19 18 19 20 22 22 22 22 23 23 22 21 22 23 23 23 23 23 23 22 22 21 21 20 20 19 19 19 18 18 18 17 17 17 17 17 17 17 16 17 17 16 16 16 16 16 16 16
22 20 17 16 18 20 22 22 22 22 22 21 21 23 23 24 24 23 23 23 22 22 21 21 20 20 20 19 19 18 18 18 17 17 17 17 17 17 16 16 16 16 16 16 16 16 16 16 16
24 21 19 21 20 18 20 21 22 21 21 22 22 23 23 24 24 23 23 22 22 22 21 21 20 20 20 19 19 18 18 18 17 17 17 17 17 17 16 16 16 16 16 16 16 16 16 16 15
Wind_Speed
4 6 4 2 6 7 5 5 2 4 4 4 7 8 8 5 2 5 2 7 8 6 8 11 12 13 13 13 13 14 14 14 14 13 13 13 13 13 13 13 14 14 14 15 15 14 14 14 14
4 4 2 5 6 5 4 4 5 4 5 6 7 7 7 5 4 7 5 6 8 8 9 10 12 12 12 12 13 13 13 13 13 13 13 12 12 12 13 13 13 14 14 14 14 14 14 14 14
4 2 4 5 5 4 2 1 6 6 4 4 5 6 5 4 5 5 6 10 8 7 8 10 12 12 12 12 12 12 13 12 12 12 12 12 12 12 12 13 13 13 13 14 14 13 13 13 13
3 4 6 7 5 0 4 4 6 6 6 6 6 6 5 4 5 6 11 10 8 6 8 10 12 12 11 11 11 11 12 12 12 12 12 12 12 12 13 13 13 13 13 13 13 13 13 12 12
4 5 7 5 3 2 3 4 3 4 4 5 6 6 4 4 9 13 11 10 8 6 7 9 12 12 11 11 11 11 11 11 11 11 11 11 11 12 12 12 12 12 12 12 12 12 12 11 11
5 6 6 3 3 3 3 2 4 6 6 6 5 5 3 4 10 11 9 8 6 6 6 8 11 11 10 10 10 10 10 10 11 11 11 11 11 11 11 11 11 11 12 11 12 11 11 10 10
5 5 5 4 2 2 3 3 4 6 6 4 4 5 3 4 7 9 8 7 5 5 5 5 8 9 10 10 10 10 9 9 10 10 10 10 10 10 10 10 10 10 10 10 10 10 10 9 9
5 6 5 2 4 2 4 4 4 6 5 5 5 7 6 6 9 9 8 6 5 4 3 4 5 6 7 7 9 9 9 9 9 9 9 8 8 8 9 8 9 9 9 9 9 9 9 9 9
4 5 3 5 6 4 6 5 4 3 6 3 4 5 8 15 14 11 8 5 5 5 2 3 4 5 5 5 7 7 7 7 7 6 7 6 6 6 5 6 7 7 8 8 8 8 8 8 8
5 4 6 6 7 7 7 6 6 5 4 3 6 8 15 16 14 13 11 11 9 7 5 3 3 4 4 4 5 5 5 5 4 4 5 5 5 4 4 4 5 5 6 6 7 7 8 7 7
3 4 3 3 5 8 7 6 5 8 5 6 11 16 18 16 13 12 11 9 9 7 6 5 4 4 4 3 4 4 4 4 3 3 4 4 3 3 3 3 4 4 4 5 5 6 5 5 5
2 1 2 3 6 7 8 7 5 5 6 8 15 19 19 16 14 13 12 9 7 7 6 5 5 4 4 3 3 3 3 2 2 2 3 3 2 1 1 1 2 3 3 3 3 3 3 3 4
2 1 2 4 8 7 7 5 5 2 5 12 15 16 17 15 12 9 8 7 7 7 6 5 5 5 4 4 3 3 3 3 3 3 3 4 2 1 1 0 0 1 1 1 1 2 2 2 3
1 2 3 4 7 5 6 3 3 3 10 14 15 15 14 14 12 9 8 8 8 8 7 6 6 5 5 4 3 4 4 4 4 4 5 6 5 3 2 1 1 1 1 0 1 1 2 1 1
3 5 7 4 4 4 7 2 2 5 11 13 13 12 11 10 10 10 10 9 9 9 8 7 7 5 5 5 5 5 6 6 5 5 6 6 6 5 3 2 2 2 1 0 1 1 2 1 1
5 6 4 3 3 4 7 4 3 8 12 11 10 10 10 9 9 9 9 8 8 8 8 8 7 6 6 5 5 4 5 5 5 5 5 6 6 6 4 3 3 2 2 1 1 1 1 1 1
7 3 1 3 1 4 5 4 4 9 11 10 9 9 9 7 7 8 8 8 8 8 8 7 6 6 6 5 4 3 3 4 5 5 5 5 6 6 5 3 3 3 2 2 2 1 1 1 1
1 0 1 3 3 4 4 4 4 9 10 9 8 7 8 9 9 7 7 7 7 7 7 7 6 6 5 3 2 2 1 2 3 4 4 4 4 5 5 4 3 3 2 2 1 1 1 1 2
4 2 2 4 3 5 5 4 5 9 9 9 8 8 8 8 5 6 6 7 6 6 7 7 7 5 5 3 3 2 2 2 1 2 4 5 5 5 5 3 3 3 3 3 3 2 2 1 2
3 1 1 2 2 3 2 1 2 7 10 10 10 10 9 7 5 6 6 6 7 7 6 7 6 6 6 4 3 2 2 2 2 2 2 5 5 5 5 4 3 3 3 3 3 3 2 1 2
1 4 3 2 2 5 4 4 1 3 4 4 6 7 8 9 8 7 7 7 6 7 7 7 6 6 5 4 3 2 1 1 0 1 1 3 5 5 5 4 4 4 4 4 4 4 4 3 1
2 3 4 4 5 2 3 1 5 3 4 6 7 7 8 8 7 7 7 7 7 7 6 5 5 5 4 4 4 4 3 3 3 2 2 3 4 4 5 5 5 4 4 4 4 4 3 4 2
4 4 5 5 5 4 4 2 8 2 4 8 8 9 9 9 9 9 8 7 6 6 6 5 5 4 4 4 4 4 2 2 1 1 2 2 2 3 4 5 4 4 3 4 4 3 4 4 4
6 8 8 7 6 2 1 1 6 4 7 5 7 9 9 9 9 7 7 7 6 5 5 5 5 4 3 3 3 4 4 3 2 2 2 2 2 2 3 3 3 3 3 4 4 3 4 3 3
6 7 5 6 5 4 3 2 8 7 7 7 8 9 9 9 9 9 9 9 8 7 6 5 5 3 3 3 3 3 3 3 3 2 2 2 2 2 2 2 2 2 3 3 3 3 3 3 3
5 9 8 5 5 5 3 4 7 6 5 4 5 7 8 8 9 9 9 9 9 8 8 6 5 4 3 3 2 2 2 2 2 2 1 2 2 2 2 1 1 2 2 3 2 2 2 2 3
8 4 7 8 3 1 5 7 7 3 3 1 4 6 8 9 9 9 9 9 9 9 8 8 7 4 3 3 2 1 1 2 1 1 1 1 1 1 0 0 0 0 1 2 2 2 2 2 2
6 10 7 7 6 1 5 5 5 5 4 2 4 7 7 7 7 8 9 9 8 7 7 7 6 5 4 3 2 2 1 1 1 1 1 0 1 1 2 2 1 1 1 1 1 1 1 2 2
6 6 7 6 6 7 2 7 7 8 7 8 8 8 8 9 9 9 8 8 8 7 7 7 6 4 4 3 3 2 2 2 2 2 1 1 1 1 2 1 2 2 2 1 1 1 0 1 1
5 8 8 6 4 5 5 7 6 7 7 7 7 6 6 7 8 9 9 8 7 7 6 6 6 5 4 4 4 3 3 3 2 2 1 2 2 2 2 2 3 2 2 2 2 1 1 1 0
Wind_Direction
155 143 138 100 57 50 35 4 55 68 58 58 79 82 88 68 97 135 122 131 128 124 132 126 119 114 110 107 105 104 104 105 105 105 104 104 103 104 105 105 105 105 105 106 106 105 106 108 110
144 146 101 62 74 63 9 358 73 82 132 123 83 77 73 66 70 107 125 137 127 128 130 131 125 119 115 111 108 107 106 106 106 106 105 104 104 104 105 106 105 105 106 107 107 105 106 108 110
154 131 80 67 79 123 129 84 110 107 104 86 81 71 79 106 125 136 148 135 121 125 134 138 129 124 119 115 111 110 109 108 107 106 105 104 104 104 105 105 105 104 105 108 107 106 107 109 110
112 56 55 65 64 138 158 156 132 113 67 55 89 73 70 102 137 136 134 131 124 123 135 140 133 129 124 120 117 113 112 111 109 106 104 104 105 106 105 105 104 104 105 106 107 107 107 110 113
64 73 59 53 35 39 106 144 113 89 72 63 80 83 53 39 108 124 131 133 131 128 138 143 136 132 129 126 122 117 114 111 109 107 105 105 105 104 104 104 104 104 105 106 108 108 107 109 113
57 66 78 75 49 54 98 106 89 86 93 88 80 87 58 109 122 133 131 129 131 133 136 144 141 137 134 130 127 122 119 116 113 111 108 106 105 104 104 104 104 105 106 107 108 107 105 106 112
92 85 111 123 105 113 156 104 109 115 109 107 107 96 95 135 131 126 119 119 121 124 125 132 139 140 138 135 130 126 123 120 117 115 112 110 109 106 105 105 105 105 106 106 106 105 103 103 111
111 96 91 121 145 178 145 109 111 117 110 119 116 133 165 165 131 117 112 113 119 115 114 121 127 129 132 138 136 133 129 126 123 120 117 114 110 108 107 104 105 106 106 107 106 104 101 100 109
86 78 145 186 171 175 146 131 137 99 117 132 121 146 150 138 132 129 131 138 154 159 140 130 126 126 131 140 141 136 132 127 123 121 117 101 90 92 98 106 107 108 108 106 104 102 98 93 98
81 123 206 199 173 156 152 145 147 121 130 108 87 99 128 141 149 155 164 171 178 182 181 163 152 146 146 150 128 117 114 113 109 107 103 95 88 83 88 92 102 101 101 99 97 95 91 89 92
107 172 208 172 150 140 141 140 136 135 180 183 154 146 149 154 161 170 177 180 183 182 184 178 169 165 160 138 129 120 118 121 113 110 115 106 83 62 58 50 49 57 66 66 72 76 83 96 108
96 239 166 157 134 137 146 143 139 176 213 166 153 152 156 164 174 181 182 182 176 178 191 180 174 171 171 157 146 142 144 150 151 150 145 129 107 57 40 44 39 43 45 52 57 70 85 107 128
60 1 44 116 116 130 123 133 143 172 117 126 137 150 164 173 181 184 179 175 172 181 188 182 180 182 175 162 170 166 175 179 191 194 190 176 168 191 227 269 22 25 26 54 60 66 80 92 119
32 47 58 92 111 128 122 111 106 155 132 135 148 163 174 179 179 175 177 182 183 186 187 180 186 187 180 175 181 185 190 190 194 204 209 201 197 197 202 240 266 275 264 274 111 113 106 100 147
66 58 44 51 102 129 111 65 216 160 142 147 160 168 176 184 181 188 189 189 186 187 183 183 190 182 183 189 196 193 190 191 197 210 212 207 207 201 200 217 242 251 236 209 93 99 103 122 151
54 59 48 324 107 121 129 212 221 153 151 159 167 172 180 189 192 195 190 187 184 180 179 186 190 180 189 195 197 196 187 189 204 210 208 211 212 206 197 207 232 230 195 174 151 131 112 129 169
38 62 330 303 184 135 146 215 198 161 163 171 177 179 183 190 198 196 190 186 183 182 178 180 180 179 191 193 185 182 180 191 203 204 205 212 207 200 195 206 223 205 175 182 204 166 157 178 204
208 221 277 258 234 139 170 219 177 171 173 180 182 184 189 198 206 192 185 182 177 174 170 173 176 178 170 164 148 147 170 206 199 196 207 212 207 200 193 201 204 181 169 194 195 171 152 169 188
159 173 242 254 208 152 188 211 190 178 182 186 189 192 202 208 197 175 172 168 163 163 166 173 176 171 158 154 166 173 200 213 203 208 213 214 215 206 196 205 198 185 192 209 196 173 164 166 152
146 141 286 331 50 131 149 260 212 194 202 197 194 198 202 197 178 173 166 165 170 174 175 175 176 178 180 176 166 166 164 185 202 223 221 223 219 213 211 209 208 198 198 205 197 176 161 172 161
178 183 199 168 65 52 86 353 268 239 224 209 196 196 196 194 187 179 175 174 170 178 184 186 183 184 185 171 141 116 93 72 162 234 243 239 226 218 214 213 211 204 196 207 205 189 178 185 186
235 234 165 129 100 14 71 264 278 242 235 224 209 193 196 190 180 179 182 182 183 187 179 172 169 174 178 166 165 173 182 195 216 221 236 254 234 224 224 222 214 208 201 206 209 195 186 173 189
182 69 85 84 102 59 32 112 288 323 247 240 221 202 197 189 180 182 183 184 176 164 159 156 151 166 170 169 175 177 193 201 212 218 236 256 264 248 237 232 221 212 207 209 206 192 187 181 183
119 72 55 47 66 46 317 146 280 250 233 242 215 201 195 185 176 174 164 151 149 143 143 146 150 166 170 170 173 180 192 193 208 246 252 263 270 263 248 235 227 220 218 215 210 202 192 191 187
88 88 41 16 18 260 293 211 254 260 240 222 205 194 186 178 167 166 161 159 157 154 155 154 153 172 169 168 181 190 195 188 208 239 241 251 273 275 263 238 225 222 221 218 206 196 203 198 195
145 134 151 175 204 272 333 252 263 276 279 228 189 170 168 171 167 170 169 165 165 164 161 158 163 184 174 169 190 192 188 195 218 230 232 238 251 262 268 251 227 223 215 207 192 193 204 199 205
126 128 148 126 138 30 299 297 307 327 360 106 152 161 175 177 173 170 165 165 167 168 167 168 169 171 168 170 173 175 175 175 201 210 203 245 265 267 267 288 317 217 183 184 178 187 203 190 209
129 138 103 111 133 215 304 295 261 269 259 225 190 192 189 174 167 162 164 166 165 167 163 161 162 169 168 159 168 173 155 144 138 115 106 50 12 39 72 64 52 50 69 126 152 179 201 190 222
110 91 98 101 137 146 219 272 233 227 219 214 215 204 185 176 170 166 166 163 159 159 158 157 158 158 151 149 141 121 113 107 98 89 82 83 64 76 81 77 66 61 51 56 80 67 122 167 221
150 155 144 143 178 159 165 262 272 238 227 212 212 200 181 175 166 160 156 152 153 159 160 159 161 158 154 147 134 125 112 104 98 85 78 82 83 80 84 83 73 64 57 59 76 59 50 91 111
Height
1495 1495 1496 1499 1503 1518 1525 1519 1514 1514 1516 1517 1517 1519 1522 1526 1529 1536 1533 1533 1536 1537 1539 1540 1541 1542 1543 1543 1544 1544 1544 1545 1546 1546 1547 1547 1548 1548 1549 1549 1550 1551 1551 1552 1553 1554 1555 1556 1557
1496 1497 1499 1501 1515 1535 1530 1519 1517 1516 1518 1518 1519 1522 1524 1527 1528 1530 1532 1535 1537 1539 1540 1542 1543 1544 1544 1545 1546 1546 1547 1547 1548 1549 1549 1550 1550 1551 1551 1552 1553 1553 1554 1554 1555 1556 1557 1558 1559
1498 1498 1501 1507 1523 1532 1528 1520 1518 1518 1519 1519 1522 1524 1527 1529 1530 1532 1534 1536 1539 1541 1542 1544 1545 1546 1546 1547 1548 1548 1549 1550 1550 1551 1552 1552 1553 1553 1553 1554 1555 1555 1556 1557 1558 1559 1560 1561 1561
1499 1501 1504 1515 1525 1522 1520 1519 1518 1518 1520 1521 1523 1527 1530 1533 1533 1534 1536 1538 1540 1542 1544 1546 1547 1548 1548 1549 1550 1551 1551 1552 1553 1553 1554 1554 1555 1555 1556 1556 1557 1557 1558 1559 1560 1561 1562 1563 1564
1500 1502 1514 1526 1524 1519 1518 1519 1519 1520 1522 1524 1524 1529 1533 1535 1535 1537 1538 1540 1543 1544 1546 1547 1549 1550 1550 1551 1552 1553 1553 1554 1555 1555 1556 1557 1557 1557 1558 1558 1559 1560 1560 1561 1562 1563 1564 1565 1566
1502 1506 1527 1534 1526 1521 1520 1521 1522 1522 1524 1526 1527 1530 1535 1536 1538 1539 1541 1543 1545 1547 1548 1549 1551 1552 1552 1553 1554 1555 1556 1556 1557 1558 1558 1559 1559 1559 1560 1561 1561 1562 1563 1564 1564 1565 1566 1567 1568
1505 1514 1527 1528 1528 1524 1522 1522 1523 1524 1526 1528 1529 1532 1535 1538 1540 1541 1543 1545 1547 1549 1550 1551 1552 1553 1554 1555 1556 1557 1558 1558 1559 1560 1560 1561 1561 1562 1562 1563 1563 1564 1565 1566 1566 1567 1568 1569 1570
1505 1513 1525 1528 1528 1525 1522 1524 1525 1526 1527 1530 1530 1532 1535 1538 1541 1543 1545 1547 1549 1550 1552 1553 1554 1555 1556 1557 1558 1559 1560 1561 1561 1562 1562 1563 1563 1564 1565 1565 1566 1566 1567 1568 1569 1570 1571 1572 1572
1507 1520 1529 1526 1525 1522 1521 1524 1526 1527 1528 1530 1531 1532 1535 1538 1541 1544 1546 1548 1550 1551 1553 1554 1556 1557 1558 1559 1560 1561 1562 1562 1563 1564 1564 1565 1565 1566 1567 1567 1568 1569 1569 1570 1571 1572 1573 1573 1574
1508 1523 1521 1516 1516 1517 1520 1523 1526 1528 1529 1531 1532 1534 1536 1538 1541 1544 1546 1547 1550 1552 1554 1555 1557 1558 1559 1560 1561 1562 1563 1564 1565 1565 1566 1567 1567 1568 1569 1569 1570 1571 1571 1572 1573 1574 1575 1575 1576
1509 1515 1512 1512 1514 1516 1520 1523 1526 1527 1530 1529 1530 1533 1536 1539 1542 1544 1546 1548 1551 1553 1554 1556 1558 1559 1560 1561 1562 1564 1565 1565 1566 1567 1568 1568 1569 1570 1570 1571 1572 1572 1573 1574 1574 1575 1576 1577 1578
1510 1511 1511 1512 1514 1517 1520 1523 1526 1527 1527 1528 1530 1532 1536 1539 1542 1544 1547 1549 1552 1553 1555 1557 1558 1560 1561 1563 1564 1565 1566 1567 1567 1568 1569 1570 1570 1571 1572 1572 1573 1574 1575 1575 1576 1577 1578 1578 1579
1511 1511 1512 1512 1515 1518 1521 1524 1526 1527 1528 1530 1533 1535 1537 1540 1543 1546 1548 1551 1552 1554 1556 1558 1559 1561 1562 1563 1564 1565 1567 1568 1568 1569 1570 1571 1571 1572 1573 1573 1574 1575 1576 1577 1577 1578 1578 1579 1580
1512 1512 1513 1514 1517 1520 1523 1526 1527 1528 1529 1531 1533 1536 1538 1540 1543 1546 1548 1550 1552 1554 1556 1558 1559 1561 1562 1564 1565 1566 1567 1568 1569 1570 1571 1571 1572 1573 1573 1574 1575 1576 1577 1577 1578 1578 1579 1579 1580
1512 1515 1517 1517 1519 1521 1524 1530 1528 1528 1530 1532 1535 1537 1540 1542 1544 1546 1548 1550 1552 1554 1556 1558 1559 1561 1562 1564 1565 1566 1567 1568 1569 1570 1570 1571 1572 1573 1574 1574 1575 1576 1577 1577 1578 1579 1579 1580 1580
1515 1523 1529 1522 1520 1522 1528 1536 1528 1529 1531 1533 1536 1538 1540 1542 1544 1547 1549 1551 1553 1555 1556 1558 1559 1560 1562 1563 1565 1566 1567 1567 1569 1569 1570 1571 1572 1573 1573 1574 1575 1576 1576 1577 1578 1578 1579 1579 1580
1528 1535 1534 1527 1521 1522 1527 1532 1527 1529 1531 1533 1536 1538 1540 1542 1544 1546 1549 1551 1553 1555 1556 1558 1559 1560 1561 1563 1564 1565 1566 1567 1568 1569 1570 1570 1571 1572 1573 1573 1574 1575 1576 1576 1577 1577 1578 1579 1579
1535 1535 1534 1532 1523 1524 1528 1529 1527 1529 1531 1534 1536 1538 1540 1541 1543 1546 1548 1550 1553 1555 1556 1558 1559 1560 1561 1563 1563 1564 1565 1566 1567 1568 1569 1569 1570 1571 1571 1572 1573 1574 1575 1575 1576 1577 1577 1578 1578
1525 1531 1534 1529 1521 1524 1528 1529 1528 1529 1531 1533 1535 1536 1538 1540 1543 1546 1548 1550 1552 1553 1555 1556 1558 1559 1560 1561 1562 1563 1564 1565 1566 1567 1567 1568 1568 1569 1570 1571 1571 1572 1573 1574 1574 1575 1576 1577 1577
1524 1530 1531 1526 1521 1524 1529 1531 1528 1528 1528 1530 1532 1534 1536 1539 1542 1544 1546 1548 1550 1552 1554 1555 1557 1558 1559 1560 1561 1562 1563 1564 1565 1565 1566 1566 1567 1567 1568 1569 1569 1570 1571 1572 1573 1573 1574 1575 1576
1523 1527 1527 1528 1525 1527 1531 1536 1532 1528 1529 1530 1532 1533 1535 1538 1540 1543 1545 1547 1549 1551 1552 1554 1556 1557 1558 1559 1559 1560 1561 1561 1562 1563 1564 1564 1565 1565 1566 1566 1567 1568 1569 1570 1571 1572 1572 1573 1574
1526 1518 1520 1524 1534 1543 1538 1553 1535 1531 1529 1528 1529 1531 1533 1536 1538 1541 1543 1545 1547 1550 1552 1553 1555 1556 1557 1558 1559 1559 1559 1560 1561 1561 1562 1563 1563 1563 1563 1564 1565 1566 1567 1567 1568 1569 1570 1571 1572
1518 1517 1522 1528 1536 1546 1544 1552 1544 1532 1531 1527 1525 1527 1529 1532 1535 1538 1541 1544 1547 1550 1551 1553 1554 1555 1556 1557 1557 1558 1558 1558 1559 1560 1560 1560 1561 1561 1561 1562 1562 1563 1564 1565 1566 1567 1568 1568 1569
1515 1523 1531 1539 1547 1559 1549 1553 1549 1536 1528 1523 1522 1524 1526 1530 1533 1537 1540 1543 1546 1549 1550 1551 1553 1554 1555 1556 1556 1556 1557 1557 1558 1558 1558 1559 1559 1559 1559 1560 1560 1561 1562 1563 1564 1564 1565 1566 1567
1519 1537 1560 1562 1570 1566 1551 1552 1546 1525 1519 1518 1518 1520 1523 1527 1530 1534 1538 1541 1544 1547 1549 1550 1552 1553 1554 1554 1555 1555 1556 1556 1556 1557 1557 1557 1557 1557 1557 1557 1558 1559 1560 1561 1561 1562 1563 1563 1564
1522 1532 1558 1570 1573 1567 1553 1552 1535 1519 1516 1515 1516 1519 1522 1525 1528 1532 1536 1539 1542 1545 1547 1549 1551 1552 1553 1553 1554 1554 1554 1555 1555 1555 1555 1556 1555 1555 1556 1556 1556 1557 1557 1558 1559 1559 1560 1561 1561
1524 1532 1535 1556 1562 1566 1559 1546 1528 1517 1516 1515 1516 1519 1521 1524 1527 1530 1534 1538 1541 1543 1545 1548 1549 1551 1552 1552 1553 1553 1554 1554 1554 1554 1554 1554 1554 1554 1554 1554 1555 1555 1555 1556 1556 1557 1557 1558 1558
1515 1527 1543 1556 1571 1571 1560 1551 1543 1524 1519 1517 1517 1518 1520 1523 1526 1529 1533 1536 1540 1543 1545 1547 1549 1551 1552 1552 1553 1553 1553 1553 1553 1553 1553 1553 1553 1553 1553 1553 1553 1553 1554 1554 1554 1555 1555 1555 1556
1521 1530 1542 1555 1557 1571 1569 1555 1524 1519 1516 1516 1516 1516 1519 1522 1525 1528 1532 1536 1539 1542 1544 1546 1548 1550 1551 1551 1552 1552 1552 1553 1553 1553 1553 1552 1552 1552 1552 1552 1552 1552 1552 1552 1552 1552 1552 1553 1553
1510 1521 1533 1547 1556 1562 1563 1551 1514 1513 1512 1513 1514 1516 1519 1522 1524 1528 1531 1535 1538 1541 1543 1545 1547 1548 1550 1551 1551 1552 1552 1552 1552 1552 1552 1552 1552 1552 1552 1551 1551 1551 1551 1551 1551 1551 1551 1551 1551